LA4GY-1 Weather Reports


Display with metric or nautical units.
time (UTC)temp
F
wind
direction
speed
MPH
gust
MPH
rain 1hr
in
rain 24hr
in
rain mn
in
humidity
%
barometer
mb
20260504151006 42 337 0.0 0.0 0.00 0.28 0.28 80 997.9
20260504141006 42 253 0.0 0.0 0.00 0.28 0.28 82 997.7
20260504082005 36 313 0.0 0.0 0.07 0.14 0.14 88 996.2
20260504081005 36 313 0.0 0.0 0.07 0.13 0.13 87 996.1
20260504050005 38 167 0.0 0.0 0.00 0.02 0.00 87 996.9
20260504045005 38 67 0.0 0.0 0.00 0.02 0.00 87 997.2
20260504044005 38 96 0.0 0.0 0.00 0.02 0.00 87 997.3
20260504043005 37 53 0.0 0.0 0.00 0.02 0.00 87 997.4
20260504042005 37 49 0.0 0.0 0.00 0.02 0.00 88 997.7
20260504041005 37 9 0.0 0.0 0.00 0.02 0.00 87 997.8
20260504040005 37 69 0.0 0.0 0.00 0.02 0.00 87 997.8
20260504035006 37 42 0.0 0.0 0.00 0.03 0.00 87 997.9
20260504033005 37 96 0.0 0.0 0.00 0.04 0.00 84 998.1
20260504032005 37 9 0.0 0.0 0.00 0.04 0.00 83 998.4
20260504031005 38 321 0.0 0.0 0.00 0.04 0.00 82 998.4
20260504030004 38 74 0.0 0.0 0.00 0.04 0.00 82 998.6
20260504025005 38 69 0.0 0.0 0.00 0.04 0.00 81 998.7
20260504024005 39 321 0.0 0.0 0.00 0.04 0.00 80 998.8
20260504022005 39 286 0.0 0.0 0.00 0.08 0.00 79 999.0
20260504021006 39 68 0.0 0.0 0.00 0.09 0.00 78 999.0
20260504020005 39 209 0.0 0.0 0.00 0.09 0.00 78 999.0
20260504015005 39 209 0.0 0.0 0.00 0.09 0.00 79 999.2
20260504013005 40 209 0.0 0.0 0.00 0.09 0.00 79 999.3
20260504012005 40 209 0.0 0.0 0.00 0.09 0.00 79 999.6
20260504010005 40 209 0.0 0.0 0.00 0.09 0.00 77 1000.0
20260504005005 40 216 0.0 0.0 0.00 0.09 0.00 78 1000.0
20260504003005 39 219 0.0 0.0 0.00 0.09 0.00 79 1000.2
20260504002005 39 219 0.0 0.0 0.00 0.10 0.00 77 1000.2
20260504001005 40 211 0.0 0.0 0.00 0.11 0.00 78 1000.3
20260503234005 40 207 0.0 0.0 0.00 0.11 0.00 77 1000.5
20260503233005 40 217 0.0 0.0 0.00 0.11 0.00 77 1000.7
20260503231005 40 219 0.0 0.0 0.00 0.11 0.00 75 1000.9
20260503230004 40 225 0.0 0.0 0.00 0.11 0.00 76 1001.0
20260503225005 40 218 0.0 0.0 0.00 0.11 0.00 75 1001.0
20260503224005 40 216 0.0 0.0 0.00 0.11 0.00 75 1001.1
20260503223004 41 214 0.0 0.0 0.00 0.11 0.00 73 1001.4
20260503221004 41 212 0.0 0.0 0.00 0.12 0.00 72 1001.4
20260503220005 41 212 0.0 0.0 0.00 0.12 0.00 72 1001.4
20260503215004 41 212 0.0 0.0 0.00 0.12 0.12 73 1001.7
20260503214004 41 209 0.0 0.0 0.00 0.12 0.12 73 1001.7
20260503212006 40 209 0.0 0.0 0.00 0.12 0.12 73 1002.1
20260503211004 40 216 0.0 0.0 0.00 0.12 0.12 76 1002.3
20260503210005 40 277 0.0 0.0 0.00 0.12 0.12 76 1002.5
20260503205005 40 342 0.0 0.0 0.00 0.12 0.12 76 1002.5
20260503204005 40 324 0.0 0.0 0.00 0.13 0.12 77 1002.6
20260503203004 40 328 0.0 0.0 0.00 0.13 0.12 77 1002.6
20260503202004 40 336 0.0 0.0 0.00 0.13 0.12 77 1003.0
20260503200005 41 296 0.0 0.0 0.00 0.13 0.12 77 1003.2
20260503193005 41 255 0.0 0.0 0.00 0.13 0.12 75 1003.3
20260503192005 41 264 0.0 0.0 0.00 0.13 0.12 72 1003.5
20260503191006 41 214 0.0 0.0 0.00 0.13 0.12 75 1003.4
20260503190005 41 213 0.0 0.0 0.00 0.13 0.12 73 1003.5
20260503185005 41 213 0.0 0.0 0.00 0.13 0.12 74 1003.6
20260503184005 41 214 0.0 0.0 0.00 0.14 0.12 75 1003.7
20260503183004 41 209 0.0 0.0 0.00 0.14 0.12 75 1003.8
20260503182006 41 209 0.0 0.0 0.00 0.15 0.12 75 1003.8
20260503181006 41 207 0.0 0.0 0.00 0.15 0.12 75 1003.9
20260503180006 41 217 0.0 0.0 0.00 0.15 0.12 74 1003.8
20260503175006 41 225 0.0 0.0 0.00 0.17 0.12 73 1003.8
20260503174006 41 207 0.0 0.0 0.00 0.17 0.12 74 1003.9
20260503173005 41 217 0.0 0.0 0.00 0.17 0.12 74 1004.0
20260503172005 41 217 0.0 0.0 0.00 0.17 0.12 73 1004.3
20260503171006 41 222 0.0 0.0 0.00 0.17 0.12 73 1004.4